Regional Weather Roundup
Issued by NWS State College, PA

Home | Current Version | Previous Version | Text Only | Print | Product List | Glossary Off
Versions: 1 2 3 4 5 6 7 8 9 10 11 12 13 14 15 16 17 18 19 20 21 22 23 24 25 26 27 28 29 30 31 32 33 34 35 36 37 38 39 40 41 42 43 44 45 46 47 48 49 50

000
ASUS41 KCTP 281303
RWRCTP

REGIONAL WEATHER ROUNDUP
NATIONAL WEATHER SERVICE STATE COLLEGE PA
800 AM EST TUE FEB 28 2017

Note: "fair" indicates few or no clouds below 12,000 feet with no
significant weather and/or obstructions to visibility.

* = STATION THAT DOES NOT REPORT PRECIPITATION /E.G. RAIN...SNOW...ETC/
    THUNDER OR FOG.

PAZ002>004-007>009-013>016-020>023-029>032-281400-
WESTERN PENNSYLVANIA

CITY           SKY/WX    TMP DP  RH WIND       PRES   REMARKS
ERIE           CLOUDY    43  36  76 S12       30.18F
MEADVILLE      MOSUNNY   40  35  83 VRB6      30.18S
FRANKLIN*      MOSUNNY   37  32  81 S5        30.22R
NEW CASTLE     PTSUNNY   37  37 100 E9        30.19F
BEAVER COUNTY  MOSUNNY   41  37  87 S5        30.20S
BUTLER*        MOSUNNY   37  32  81 CALM      30.22R
PITTSBURGH INT PTSUNNY   40  38  93 CALM      30.20R
PITTSBURGH     MOSUNNY   43  37  79 S5        30.20R
INDIANA*       SUNNY     36  36 100 CALM      30.24S
LATROBE        SUNNY     36  36 100 CALM      30.21S
WASHINGTON CO* CLOUDY    36  34  93 CALM      30.22S
$$

PAZ004>006-010>012-017>019-024>028-033>037-041-042-045-046-049>053-281400-
CENTRAL PENNSYLVANIA

CITY           SKY/WX    TMP DP  RH WIND       PRES   REMARKS
BRADFORD       SUNNY     34  33  96 SE3       30.20S FOG
DUBOIS         SUNNY     40  33  76 E7        30.19S
CLEARFIELD       N/A    N/A N/A N/A MISG      30.24R
JOHNSTOWN      SUNNY     43  31  62 SW3       30.21R
ALTOONA        SUNNY     38  34  85 CALM      30.26R
STATE COLLEGE  SUNNY     36  34  93 CALM      30.27R
WILLIAMSPORT   CLOUDY    37  32  82 CALM      30.29R
SELINSGROVE    SUNNY     35  33  92 N3        30.31R
FT INDIANTOWN  SUNNY     37  37 100 CALM      30.31S
CAPITAL CITY   SUNNY     42  35  76 SE3       30.31S
HARRISBURG     MOSUNNY   40  37  89 CALM      30.30S
YORK           SUNNY     38  36  92 CALM      30.30S
$$

PAZ038>040-043-044-047-048-054-055-060>062-067>071-281400-
EASTERN PENNSYLVANIA

CITY           SKY/WX    TMP DP  RH WIND       PRES   REMARKS
SCRANTON       CLOUDY    43  32  65 CALM      30.29S
MOUNT POCONO   CLOUDY    43  28  55 SW3       30.28S
ALLENTOWN      MOSUNNY   40  34  79 CALM      30.33S
QUAKERTOWN*    CLOUDY    37  34  87 CALM      30.33S
READING        SUNNY     40  37  89 CALM      30.32R
LANCASTER      MOSUNNY   41  37  86 E5        30.31S
COATESVILLE    SUNNY     43  32  65 CALM      30.33S
POTTSTOWN      CLOUDY    39  34  82 CALM      30.34S
BLUE BELL      CLOUDY    39  34  81 CALM      30.33S
DOYLESTOWN     CLOUDY    40  34  79 CALM      30.33S
WILLOW GROVE   NOT AVBL
NORTH PHILA    CLOUDY    46  36  68 NE3       30.35S
PHILADELPHIA   CLOUDY    46  38  73 VRB3      30.34R
$$



USA.gov is the U.S. government's official web portal to all federal, state and local government web resources and services.